Location: Kawakawa
(35.3830°S, 174.0670°E)
Time: 17:33:13
(UTC+12:00)

SEDSat Delta rocket - Pass Details

Date: 15 August 2020
Orbit: 533 x 1001 km, 31.4° (Epoch: 25 September)

Event Time Altitude Azimuth Distance (km) Brightness Sun altitude
Rises 18:17:01 0° 303° (WNW) 2,718 7.9 -5.8°
Reaches altitude 10° 18:19:30 10° 314° (NW) 1,799 6.5 -6.3°
Maximum altitude 18:23:06 30° 16° (NNE) 973 4.1 -7.0°
Drops below altitude 10° 18:26:43 10° 78° (ENE) 1,802 4.9 -7.7°
Enters shadow 18:27:08 - 80° (E) 1,953 5.0 -7.8°
